Home > Weather > Arnstadt > Past weeks

Flag for Germany Past Weather in Arnstadt, Thuringia, Germany — Yesterday and Last 2 Weeks

Now
55 °F

Passing clouds.


Feels Like: 55 °F
Forecast: 47 / 77 °F
Wind: 3 mph from Northwest

Location: Erfurt-Bindersleben

Current Time: Aug 30, 2016 at 5:13:28 AM

Latest Report: Aug 30, 2016 at 4:20 AM


Visibility: N/A

Pressure: 30.27 "Hg

Humidity: 88%

Dew Point: 52 °F

Location of ArnstadtLocation

Past Weather in Arnstadt — Graph

°F

Arnstadt Temperature Yesterday

Maximum temperature yesterday: 73 °F (at 2:20 PM)
Minimum temperature yesterday: 61 °F (at 11:20 PM)
Average temperature yesterday: 67 °F

High & Low Weather Summary for the Past Weeks

 TemperatureHumidityPressure
High93 °F (Aug 26, 4:20 PM)100% (Aug 18, 6:20 AM)30.36 "Hg (Aug 18, 6:20 AM)
Low43 °F (Aug 18, 6:20 AM)17% (Aug 25, 2:20 PM)29.80 "Hg (Aug 18, 4:50 PM)
Average68 °F62%30.08 "Hg
* Reported Aug 15 3:20 AM — Aug 30 3:20 AM, Arnstadt, Weather by CustomWeather, © 2016

Note: Actual official high and low records may vary slightly from our data, if they occured in-between our weather recording intervals... More about our weather records

Advertising

Arnstadt Weather History for the Previous 24 Hours

Scroll right to see more
 ConditionsComfort  
Time TempWeatherWind HumidityBarometerVisibility
3:20 AM
Tue, Aug 30
55 °FPassing clouds.5 mph88%30.24 "HgN/A
2:50 AM57 °FPassing clouds.3 mph88%30.24 "HgN/A
2:20 AM59 °FPassing clouds.2 mph82%30.24 "HgN/A
1:50 AM57 °FPassing clouds.3 mph88%30.24 "HgN/A
1:20 AM59 °FPassing clouds.5 mph82%30.24 "HgN/A
12:50 AM59 °FPassing clouds.6 mph82%30.24 "HgN/A
12:20 AM61 °FPassing clouds.9 mph77%30.21 "HgN/A
11:50 PM
Mon, Aug 29
61 °FClear.9 mph77%30.21 "Hg10 mi
11:20 PM61 °FClear.9 mph77%30.21 "Hg10 mi
10:50 PM63 °FPassing clouds.10 mph73%30.21 "HgN/A
10:20 PM63 °FPassing clouds.12 mph77%30.18 "HgN/A
9:50 PM63 °FClear.8 mph77%30.18 "Hg10 mi
9:20 PM64 °FClear.8 mph73%30.15 "Hg10 mi
8:50 PM64 °FSunny.8 mph73%30.15 "Hg10 mi
8:20 PM66 °FSunny.6 mph68%30.15 "Hg10 mi
7:50 PM66 °FBroken clouds.6 mph73%30.12 "HgN/A
7:20 PM68 °FBroken clouds.10 mph64%30.12 "HgN/A
6:50 PM68 °FBroken clouds.9 mph64%30.12 "HgN/A
6:20 PM68 °FBroken clouds.9 mph60%30.12 "HgN/A
5:50 PM68 °FBroken clouds.12 mph60%30.09 "HgN/A
5:20 PM68 °FBroken clouds.12 mph60%30.09 "HgN/A
4:50 PM70 °FBroken clouds.14 mph57%30.09 "HgN/A
4:20 PM70 °FPartly sunny.17 mph60%30.09 "HgN/A
3:50 PM68 °FPartly sunny.18 mph69%30.09 "HgN/A
3:20 PM68 °FBroken clouds.16 mph69%30.09 "HgN/A
2:50 PM72 °FScattered clouds.14 mph57%30.07 "HgN/A
2:20 PM73 °FScattered clouds.13 mph57%30.07 "HgN/A
1:50 PM72 °FScattered clouds.16 mph57%30.07 "HgN/A
1:20 PM72 °FScattered clouds.14 mph61%30.07 "HgN/A
12:50 PM68 °FScattered showers. Scattered clouds.15 mph64%30.07 "HgN/A
12:20 PM68 °FScattered showers. Partly sunny.13 mph69%30.07 "HgN/A
11:50 AM68 °FBroken clouds.14 mph64%30.07 "HgN/A
11:20 AM68 °FPartly sunny.13 mph64%30.07 "HgN/A
10:50 AM72 °FScattered clouds.14 mph61%30.07 "HgN/A
10:20 AM70 °FScattered clouds.13 mph64%30.07 "HgN/A
9:50 AM70 °FScattered clouds.13 mph64%30.07 "HgN/A
9:20 AM68 °FPassing clouds.10 mph73%30.04 "HgN/A
8:50 AM66 °FPassing clouds.8 mph83%30.04 "HgN/A
8:20 AM66 °FSunny.8 mph78%30.04 "Hg10 mi
7:50 AM64 °FSunny.7 mph88%30.04 "Hg10 mi
7:20 AM63 °FPassing clouds.6 mph94%30.04 "HgN/A
6:50 AM63 °FPassing clouds.6 mph88%30.04 "HgN/A
6:20 AM63 °FPassing clouds.3 mph94%30.01 "HgN/A
5:50 AM64 °FClear.5 mph83%30.01 "Hg10 mi
5:20 AM66 °FPassing clouds.3 mph83%30.01 "HgN/A
Weather by CustomWeather, © 2016

See weather overviewHow to use our weather pages